sat.trackr.live / text

‹ back to catalog

STARLINK-30778

NORAD 58182 · 2023-167H

PAYLOAD ACTIVE UNKNOWN

§ Identity

Operator
Country
US
Launch date
2023-10-30
Launch site
AFETR
Launch vehicle
Mass (kg)
RCS (m²)

Purposes: comms

External: N2YO · Heavens-Above · Gunter

§ Orbital elements

Epoch: 2026-05-25T04:11:24.720288Z

Period
94.27 min
Inclination
43.0028°
Eccentricity
0.0000824
Mean motion
15.27580817 rev/d
Perigee alt
482.5 km
Apogee alt
483.6 km
Semi-major
6,861.2 km
B*
4.6253e-5
RAAN
71.3483°
Arg perigee
273.5687°
Mean anomaly
86.5071°
Rev number
14,268

§ Raw data

STARLINK-307781 58182U 23167H   26145.17459167  .00001011  00000+0  46253-4 0  99972 58182  43.0028  71.3483 0000824 273.5687  86.5071 15.27580817142683

JSON: /api/v1/satellites/58182 · /tle

For live sub-satellite position, see the globe view (requires WebGL).

§ Visibility from observer

Set your observer location to see the next 7 days of passes ≥ 10°. The values pass through the URL so the page stays shareable.

No JS? Fill the form by hand. The geolocation button needs JavaScript.